Weather History for Rockport, TX

Change the Weather History Date:

Sunday, January 19, 2014

  Actual Average Record
Temperature  
Mean Temperature 58 °F -  
Max Temperature 69 °F 63 °F 79 °F (1988)
Min Temperature 48 °F 47 °F 23 °F (1984)
Degree Days  
Heating Degree Days 6    
Growing Degree Days 8 (Base 50)    
Moisture  
Dew Point 52 °F    
Average Humidity 87    
Maximum Humidity 100    
Minimum Humidity 44    
Precipitation  
Precipitation 0.00 in - - ()
Sea Level Pressure  
Sea Level Pressure 30.21 in    
Wind  
Wind Speed 4 mph (NE)    
Max Wind Speed 12 mph    
Max Gust Speed 20 mph    
Visibility 5 miles    
Events Fog    
Averages and records for this station are not official NWS values.
T = Trace of Precipitation, MM = Missing Value Source: NWS Daily Summary

Daily Weather History Graph

Daily Weather History Graph

Search for Another Location

Airport:

Trip Planner

Search our weather history database for the weather conditions in past years. The results will help you decide how hot, cold, wet, or windy it might be!

Date:

Astronomy

Jan. 19, 2014 Rise Set
Actual Time 7:20 AM CST 5:57 PM CST
Civil Twilight 6:55 AM CST 6:23 PM CST
Nautical Twilight 6:26 AM CST 6:51 PM CST
Astronomical Twilight 5:58 AM CST 7:19 PM CST
Moon 9:15 PM CST (1/19) 9:10 AM CST (1/19)
Length of Visible Light 11h 27m
Length of Day
10h 37m
Waning Gibbous, 89% of the Moon is Illuminated
Jan 19
Waning Gibbous
Jan 23
Last Quarter
Jan 30
New
Feb 6
First Quarter
Feb 14
Full

Hourly Weather History & Observations

Time (CST) Temp. Dew Point Humidity Pressure Visibility Wind Dir Wind Speed Gust Speed Precip Events Conditions
12:03 AM 55.4 °F 55.4 °F 100% 30.17 in 1.5 mi Calm Calm - N/A   Clear
12:06 AM 55.4 °F 55.4 °F 100% 30.17 in 0.8 mi Calm Calm - N/A   Clear
12:53 AM 57.0 °F 55.9 °F 96% 30.18 in 0.8 mi Calm Calm - N/A   Clear
1:53 AM 51.1 °F 50.0 °F 96% 30.19 in 0.2 mi Calm Calm - N/A Fog Fog
2:12 AM 55.4 °F 53.6 °F 94% 30.18 in 1.2 mi NW 4.6 mph - N/A   Scattered Clouds
2:15 AM 55.4 °F 53.6 °F 94% 30.18 in 4.0 mi NW 3.5 mph - N/A   Scattered Clouds
2:20 AM 53.6 °F 53.6 °F 100% 30.18 in 2.5 mi Calm Calm - N/A   Mostly Cloudy
2:22 AM 53.6 °F 53.6 °F 100% 30.19 in 1.0 mi NNW 3.5 mph - N/A   Mist
2:29 AM 53.6 °F 53.6 °F 100% 30.19 in 0.2 mi NNW 3.5 mph - N/A Fog Fog
2:53 AM 52.0 °F 52.0 °F 100% 30.20 in 0.8 mi NNW 3.5 mph - N/A   Mist
3:53 AM 50.0 °F 48.9 °F 96% 30.19 in 0.5 mi Calm Calm - N/A Fog Fog
4:53 AM 48.0 °F 46.9 °F 96% 30.19 in 0.5 mi WSW 3.5 mph - N/A Fog Fog
5:53 AM 48.0 °F 46.9 °F 96% 30.21 in 0.5 mi West 3.5 mph - N/A Fog Fog
6:53 AM 51.1 °F 51.1 °F 100% 30.23 in 0.2 mi WNW 4.6 mph - N/A Fog Fog
7:53 AM 51.1 °F 50.0 °F 96% 30.26 in 0.2 mi NNW 11.5 mph 19.6 mph N/A Fog Fog
8:38 AM 53.6 °F 53.6 °F 100% 30.27 in 2.0 mi NNW 6.9 mph - N/A   Mostly Cloudy
8:42 AM 53.6 °F 53.6 °F 100% 30.27 in 9.0 mi NNW 5.8 mph - N/A   Scattered Clouds
8:53 AM 53.1 °F 52.0 °F 96% 30.28 in 10.0 mi North 9.2 mph - N/A   Partly Cloudy
9:53 AM 60.1 °F 52.0 °F 75% 30.30 in 10.0 mi NNE 8.1 mph - N/A   Clear
10:53 AM 64.9 °F 48.9 °F 56% 30.30 in 10.0 mi NE 6.9 mph - N/A   Clear
11:53 AM 69.1 °F 46.0 °F 44% 30.28 in 10.0 mi NE 9.2 mph - N/A   Clear
12:53 PM 66.0 °F 48.9 °F 54% 30.25 in 10.0 mi East 10.4 mph - N/A   Clear
1:53 PM 69.1 °F 48.0 °F 47% 30.22 in 10.0 mi East 10.4 mph - N/A   Clear
2:53 PM 66.9 °F 46.0 °F 47% 30.20 in 10.0 mi East 10.4 mph - N/A   Clear
3:53 PM 64.9 °F 48.9 °F 56% 30.19 in 10.0 mi East 9.2 mph - N/A   Clear
4:53 PM 63.0 °F 52.0 °F 67% 30.19 in 10.0 mi SE 11.5 mph - N/A   Clear
5:53 PM 57.9 °F 54.0 °F 87% 30.19 in 10.0 mi SE 10.4 mph - N/A   Clear
6:53 PM 55.9 °F 54.0 °F 93% 30.19 in 9.0 mi SE 6.9 mph - N/A   Clear
7:53 PM 57.0 °F 55.0 °F 93% 30.19 in 8.0 mi SE 8.1 mph - N/A   Clear
8:53 PM 57.0 °F 55.9 °F 96% 30.18 in 7.0 mi SE 8.1 mph - N/A   Clear
9:53 PM 57.0 °F 55.9 °F 96% 30.17 in 7.0 mi SE 5.8 mph - N/A   Clear
10:53 PM 57.9 °F 55.9 °F 93% 30.16 in 10.0 mi SSE 5.8 mph - N/A   Clear
11:53 PM 59.0 °F 57.0 °F 93% 30.15 in 10.0 mi South 5.8 mph - N/A   Clear